Jersey, United Kingdom

11:11 AM GMT on February 24, 2017 (GMT +0000)
Jersey

Weather History for EGJJ - March, 2013

Change the Weather History Date:

Monday, March 4, 2013

  Actual Average Record
Temperature  
Mean Temperature 41 °F -  
Max Temperature 49 °F 50 °F 55 °F (2007)
Min Temperature 33 °F 41 °F 30 °F (2005)
Degree Days  
Heating Degree Days 24    
Moisture  
Dew Point 36 °F    
Average Humidity 82    
Maximum Humidity 100    
Minimum Humidity 58    
Precipitation  
Precipitation 0.00 in - - ()
Sea Level Pressure  
Sea Level Pressure 29.81 in    
Wind  
Wind Speed 10 mph ()    
Max Wind Speed 15 mph    
Max Gust Speed -    
Visibility 3.2 miles    
Events      
Averages and records for this station are not official NWS values.
T = Trace of Precipitation, MM = Missing Value Source: Averaged Metar Reports

Daily Weather History Graph

Daily Weather History Graph

Search for Another Location

Airport or City:

Trip Planner

Search our weather history database for the weather conditions in past years. The results will help you decide how hot, cold, wet, or windy it might be!

Date:

Astronomy

Mar. 04, 2013 Rise Set
Actual Time 6:44 AM GMT 5:56 PM GMT
Civil Twilight 6:13 AM GMT 6:28 PM GMT
Nautical Twilight 5:36 AM GMT 7:05 PM GMT
Astronomical Twilight 4:59 AM GMT 7:42 PM GMT
Moon 1:00 AM GMT (3/4) 10:02 AM GMT (3/4)
Length of Visible Light 12h 15m
Length of Day
11h 11m
Waning Gibbous, 55% of the Moon is Illuminated
Mar 4
Waning Gibbous
Mar 4
Last Quarter
Mar 11
New
Mar 19
First Quarter
Mar 27
Full

Hourly Weather History & Observations

Time (GMT) Temp. Windchill Dew Point Humidity Pressure Visibility Wind Dir Wind Speed Gust Speed Precip Events Conditions
12:00 AM 36 °F - 34 °F 89% 29.98 in 3 mi East 12.7 mph - -   Haze
3:00 AM 34 °F - 33 °F 95% 29.95 in 4 mi East 10.4 mph - -   Mist
3:50 AM 33.8 °F 23.9 °F 32.0 °F 93% 29.92 in 3.1 mi East 15.0 mph - N/A   Mist
4:20 AM 32.0 °F 22.1 °F 32.0 °F 100% 29.92 in 3.1 mi East 13.8 mph - N/A   Mist
4:50 AM 33.8 °F 24.8 °F 32.0 °F 93% 29.89 in 3.1 mi East 12.7 mph - N/A   Mist
5:20 AM 33.8 °F 24.3 °F 32.0 °F 93% 29.89 in 3.1 mi East 13.8 mph - N/A   Mist
5:50 AM 33.8 °F 25.3 °F 32.0 °F 93% 29.89 in 2.5 mi East 11.5 mph - N/A   Mist
6:00 AM 33 °F - 32 °F 94% 29.91 in 2 mi East 8.1 mph - -   Mist
6:20 AM 33.8 °F 25.8 °F 32.0 °F 93% 29.89 in 1.2 mi East 10.4 mph - N/A   Mist
6:50 AM 33.8 °F 25.8 °F 32.0 °F 93% 29.86 in 1.2 mi East 10.4 mph - N/A   Mist
7:20 AM 33.8 °F 25.8 °F 33.8 °F 100% 29.86 in 1.2 mi East 10.4 mph - N/A   Mist
7:50 AM 33.8 °F 25.3 °F 33.8 °F 100% 29.86 in 1.6 mi East 11.5 mph - N/A   Mist
8:20 AM 35.6 °F 27.5 °F 33.8 °F 93% 29.86 in 1.9 mi East 11.5 mph - N/A   Mist
8:50 AM 39.2 °F 31.6 °F 35.6 °F 87% 29.86 in 1.9 mi East 12.7 mph - N/A   Haze
9:00 AM 38 °F - 35 °F 87% 29.88 in 2 mi East 10.4 mph - -   Haze
9:20 AM 41.0 °F 33.5 °F 37.4 °F 87% 29.86 in 2.2 mi East 13.8 mph - N/A   Haze
9:50 AM 41.0 °F 34.3 °F 35.6 °F 81% 29.86 in 2.2 mi East 11.5 mph - N/A   Haze
10:20 AM 41.0 °F 35.8 °F 35.6 °F 81% 29.83 in 2.5 mi East 8.1 mph - N/A   Haze
10:50 AM 42.8 °F 37.5 °F 35.6 °F 76% 29.83 in 2.5 mi ESE 9.2 mph - N/A   Haze
11:20 AM 42.8 °F 36.6 °F 35.6 °F 76% 29.83 in 3.1 mi ESE 11.5 mph - N/A   Haze
11:50 AM 44.6 °F 38.8 °F 35.6 °F 71% 29.80 in 3.1 mi ESE 11.5 mph - N/A   Haze
12:00 PM 44 °F - 36 °F 64% 29.82 in 3 mi ESE 10.4 mph - -   Haze
12:20 PM 44.6 °F 39.2 °F 35.6 °F 71% 29.80 in 3.1 mi ESE 10.4 mph - N/A   Haze
12:50 PM 44.6 °F 39.7 °F 35.6 °F 71% 29.77 in 4.3 mi ESE 9.2 mph - N/A   Unknown
1:20 PM 44.6 °F 39.2 °F 35.6 °F 71% 29.77 in 4.3 mi ESE 10.4 mph - N/A   Unknown
1:50 PM 46.4 °F 41.1 °F 37.4 °F 71% 29.77 in 4.3 mi East 11.5 mph - N/A   Unknown
2:20 PM 46.4 °F 40.4 °F 37.4 °F 71% 29.74 in 4.3 mi East 13.8 mph - N/A   Unknown
2:50 PM 48.2 °F - 37.4 °F 66% 29.74 in 5.0 mi SE 12.7 mph - N/A   Unknown
3:00 PM 48 °F - 38 °F 58% 29.75 in 5 mi ESE 11.5 mph - -   Haze
3:20 PM 48.2 °F - 39.2 °F 71% 29.71 in 5.0 mi ESE 11.5 mph - N/A   Unknown
3:50 PM 48.2 °F - 37.4 °F 66% 29.71 in 5.0 mi ESE 11.5 mph - N/A   Unknown
4:20 PM 48.2 °F - 39.2 °F 71% 29.71 in 5.0 mi East 11.5 mph - N/A   Unknown
4:50 PM 48.2 °F - 37.4 °F 66% 29.71 in 5.0 mi East 8.1 mph - N/A   Unknown
5:20 PM 46.4 °F 41.9 °F 37.4 °F 71% 29.71 in 4.3 mi East 9.2 mph - N/A   Unknown
5:50 PM 44.6 °F 39.2 °F 39.2 °F 81% 29.71 in 3.1 mi East 10.4 mph - N/A   Haze
6:00 PM 44 °F - 39 °F 77% 29.72 in 3 mi ENE 8.1 mph - -   Haze
6:20 PM 41.0 °F 34.3 °F 37.4 °F 87% 29.71 in 2.8 mi East 11.5 mph - N/A   Haze
6:50 PM 41.0 °F 34.3 °F 37.4 °F 87% 29.71 in 2.8 mi East 11.5 mph - N/A   Haze
7:20 PM 42.8 °F 36.6 °F 39.2 °F 87% 29.71 in 3.1 mi East 11.5 mph - N/A   Haze
7:50 PM 39.2 °F 32.5 °F 37.4 °F 93% 29.71 in 2.8 mi ESE 10.4 mph - N/A   Haze
8:20 PM 42.8 °F 36.6 °F 37.4 °F 81% 29.71 in 4.3 mi ESE 11.5 mph - N/A   Unknown
9:00 PM 40 °F - 37 °F 84% 29.71 in 4 mi ESE 11.5 mph - -   Haze